Find Starlink 36196

NORAD ID: 67107 Int'l Des: 2025-299 Owner: SPXS Country: US Constellation: starlink operational
LEOCIRCULAR

Aktuelle Ansicht

3D-Globus wird geladen...

Über Starlink 36196

Beschreibung wird geladen...

Nächste Überflüge

Passes for default location (London). Set your location on the main map for personalized predictions.

Höhenverlauf

Loading altitude history...

Zweizeiliger Elementsatz

1 67107U 25299F 26145.96508282 .00012485 00000-0 46224-3 0 9997
2 67107 42.9993 92.6543 0001343 209.4382 150.6394 15.27594985 24938
Epoch: 25. Mai 2026 • Age: 21 hours

Aktueller Status

Höhe 492.7 km
Geschwindigkeit 7.62 km/s
Subsatellitenpunkt -36.49°S, 126.11°E
Startdatum 15. Dez. 2025
Alter 0.4 years
Typ internet

Technische Details

Klassifizierung Payload
Masse 575.00 kg
Trockenmasse 530.00 kg
Gesamtmasse 575.00 kg
Länge 0.30 m
Durchmesser 4.10 m
Spannweite 29.00 m
Form Box + pan
Hersteller SPXS
Bus-Typ Starlink V2MO
Phasenstatus In Orbit
Besitzer/Staat SPXS/US

Most Searched